Weather History for North Padre Island, TX

Change the Weather History Date:

Tuesday, December 27, 2011

  Actual Average Record
Temperature  
Mean Temperature 62 °F -  
Max Temperature 66 °F - - ()
Min Temperature 57 °F - - ()
Degree Days  
Heating Degree Days 4    
Growing Degree Days 12 (Base 50)    
Moisture  
Dew Point 45 °F    
Average Humidity 54    
Maximum Humidity 67    
Minimum Humidity 43    
Precipitation  
Precipitation 0.00 in - - ()
Sea Level Pressure  
Sea Level Pressure 30.21 in    
Wind  
Wind Speed 8 mph (WNW)    
Max Wind Speed 14 mph    
Max Gust Speed 14 mph    
Visibility 10 miles    
Events      
T = Trace of Precipitation, MM = Missing Value Source: NWS Daily Summary

Daily Weather History Graph

Daily Weather History Graph

Search for Another Location

Airport:

Trip Planner

Search our weather history database for the weather conditions in past years. The results will help you decide how hot, cold, wet, or windy it might be!

Date:

Astronomy

Dec. 27, 2011 Rise Set
Actual Time 7:14 AM CST 5:42 PM CST
Civil Twilight 6:49 AM CST 6:08 PM CST
Nautical Twilight 6:20 AM CST 6:37 PM CST
Astronomical Twilight 5:52 AM CST 7:05 PM CST
Moon 9:26 AM CST (12/27) 8:59 PM CST (12/27)
Length of Visible Light 11h 18m
Length of Day
10h 27m
Waxing Crescent, 11% of the Moon is Illuminated
Dec 27
Waxing Crescent
Jan 1
First Quarter
Jan 9
Full
Jan 16
Last Quarter
Jan 23
New

Hourly Weather History & Observations

Time (CST) Temp. Dew Point Humidity Pressure Visibility Wind Dir Wind Speed Gust Speed Precip Events Conditions
12:15 AM 60.8 °F 46.4 °F 59% 30.20 in 10.0 mi WSW 9.2 mph - N/A   Clear
12:35 AM 59.0 °F 46.4 °F 63% 30.20 in 10.0 mi WSW 10.4 mph - N/A   Clear
12:55 AM 59.0 °F 48.2 °F 67% 30.19 in 10.0 mi WSW 8.1 mph 13.8 mph N/A   Clear
1:15 AM 57.2 °F 46.4 °F 67% 30.19 in 10.0 mi WSW 10.4 mph - N/A   Clear
1:35 AM 57.2 °F 46.4 °F 67% 30.19 in 10.0 mi WSW 11.5 mph - N/A   Clear
1:55 AM 57.2 °F 46.4 °F 67% 30.19 in 10.0 mi SW 12.7 mph - N/A   Clear
2:15 AM 57.2 °F 44.6 °F 63% 30.19 in 10.0 mi SW 12.7 mph - N/A   Clear
2:35 AM 57.2 °F 44.6 °F 63% 30.19 in 10.0 mi SW 13.8 mph - N/A   Clear
2:55 AM 57.2 °F 42.8 °F 59% 30.18 in 10.0 mi SW 13.8 mph - N/A   Clear
3:15 AM 57.2 °F 42.8 °F 59% 30.19 in 10.0 mi WSW 12.7 mph - N/A   Clear
3:35 AM 57.2 °F 44.6 °F 63% 30.19 in 10.0 mi WSW 13.8 mph - N/A   Clear
3:55 AM 57.2 °F 44.6 °F 63% 30.19 in 10.0 mi WSW 12.7 mph - N/A   Clear
4:35 AM 59.0 °F 44.6 °F 59% 30.20 in 10.0 mi WSW 10.4 mph - N/A   Clear
4:55 AM 59.0 °F 44.6 °F 59% 30.20 in 10.0 mi WSW 10.4 mph - N/A   Clear
5:15 AM 59.0 °F 44.6 °F 59% 30.20 in 10.0 mi West 9.2 mph - N/A   Clear
5:35 AM 59.0 °F 44.6 °F 59% 30.20 in 10.0 mi West 5.8 mph 12.7 mph N/A   Clear
6:15 AM 60.8 °F 44.6 °F 55% 30.21 in 10.0 mi West 4.6 mph - N/A   Clear
6:35 AM 59.0 °F 42.8 °F 55% 30.22 in 10.0 mi West 3.5 mph - N/A   Clear
6:55 AM 59.0 °F 42.8 °F 55% 30.22 in 10.0 mi West 3.5 mph - N/A   Clear
7:15 AM 59.0 °F 42.8 °F 55% 30.23 in 10.0 mi WNW 4.6 mph - N/A   Clear
7:35 AM 60.8 °F 42.8 °F 52% 30.23 in 10.0 mi West 3.5 mph - N/A   Clear
7:55 AM 60.8 °F 44.6 °F 55% 30.24 in 10.0 mi WNW 3.5 mph - N/A   Clear
8:15 AM 60.8 °F 44.6 °F 55% 30.25 in 10.0 mi West 4.6 mph - N/A   Clear
8:35 AM 60.8 °F 44.6 °F 55% 30.26 in 10.0 mi West 3.5 mph - N/A   Clear
8:55 AM 60.8 °F 42.8 °F 52% 30.26 in 10.0 mi West 4.6 mph - N/A   Clear
9:15 AM 60.8 °F 44.6 °F 55% 30.27 in 10.0 mi WNW 8.1 mph - N/A   Clear
9:35 AM 60.8 °F 44.6 °F 55% 30.28 in 10.0 mi WNW 5.8 mph - N/A   Clear
9:55 AM 60.8 °F 46.4 °F 59% 30.28 in 10.0 mi WNW 5.8 mph 11.5 mph N/A   Clear
10:15 AM 60.8 °F 46.4 °F 59% 30.29 in 10.0 mi WNW 6.9 mph 12.7 mph N/A   Clear
10:35 AM 62.6 °F 46.4 °F 55% 30.29 in 10.0 mi WNW 5.8 mph 12.7 mph N/A   Clear
11:15 AM 62.6 °F 44.6 °F 52% 30.27 in 10.0 mi West 4.6 mph - N/A   Clear
11:35 AM 62.6 °F 44.6 °F 52% 30.27 in 10.0 mi WNW 5.8 mph 11.5 mph N/A   Clear
11:55 AM 62.6 °F 44.6 °F 52% 30.26 in 10.0 mi WNW 6.9 mph - N/A   Clear
12:15 PM 64.4 °F 44.6 °F 49% 30.24 in 10.0 mi WNW 3.5 mph 11.5 mph N/A   Clear
12:35 PM 64.4 °F 42.8 °F 45% 30.23 in 10.0 mi WNW 5.8 mph - N/A   Clear
12:55 PM 64.4 °F 42.8 °F 45% 30.22 in 10.0 mi WNW 6.9 mph - N/A   Clear
1:35 PM 66.2 °F 42.8 °F 43% 30.20 in 10.0 mi WNW 8.1 mph - N/A   Clear
1:55 PM 66.2 °F 44.6 °F 46% 30.19 in 10.0 mi WNW 8.1 mph - N/A   Clear
2:15 PM 66.2 °F 46.4 °F 49% 30.19 in 10.0 mi WNW 8.1 mph - N/A   Clear
2:35 PM 66.2 °F 46.4 °F 49% 30.19 in 10.0 mi Variable 3.5 mph - N/A   Clear
3:15 PM 66.2 °F 44.6 °F 46% 30.19 in 10.0 mi Variable 3.5 mph - N/A   Clear
3:35 PM 66.2 °F 44.6 °F 46% 30.18 in 10.0 mi NNW 3.5 mph - N/A   Clear
3:55 PM 66.2 °F 44.6 °F 46% 30.18 in 10.0 mi NNW 5.8 mph - N/A   Clear
4:15 PM 64.4 °F 44.6 °F 49% 30.18 in 10.0 mi North 4.6 mph - N/A   Clear
4:35 PM 64.4 °F 44.6 °F 49% 30.18 in 10.0 mi Calm Calm - N/A   Clear
4:55 PM 64.4 °F 44.6 °F 49% 30.17 in 10.0 mi North 5.8 mph - N/A   Clear
5:15 PM 64.4 °F 46.4 °F 52% 30.17 in 10.0 mi Variable 4.6 mph - N/A   Clear
5:35 PM 64.4 °F 46.4 °F 52% 30.17 in 10.0 mi Variable 3.5 mph - N/A   Clear
5:55 PM 64.4 °F 46.4 °F 52% 30.17 in 10.0 mi NNE 4.6 mph - N/A   Clear
6:15 PM 64.4 °F 46.4 °F 52% 30.17 in 10.0 mi NNE 5.8 mph - N/A   Clear
6:35 PM 64.4 °F 44.6 °F 49% 30.18 in 10.0 mi NNE 8.1 mph - N/A   Clear
6:55 PM 64.4 °F 46.4 °F 52% 30.18 in 10.0 mi NNE 6.9 mph - N/A   Clear
7:15 PM 64.4 °F 46.4 °F 52% 30.19 in 10.0 mi NNE 6.9 mph - N/A   Clear
7:35 PM 64.4 °F 46.4 °F 52% 30.19 in 10.0 mi NE 8.1 mph - N/A   Clear
7:55 PM 64.4 °F 46.4 °F 52% 30.20 in 10.0 mi NE 6.9 mph - N/A   Clear
8:15 PM 64.4 °F 46.4 °F 52% 30.20 in 10.0 mi NE 8.1 mph - N/A   Clear
8:35 PM 64.4 °F 46.4 °F 52% 30.20 in 10.0 mi NE 6.9 mph - N/A   Clear
8:55 PM 64.4 °F 44.6 °F 49% 30.21 in 10.0 mi NE 6.9 mph - N/A   Clear
9:15 PM 64.4 °F 44.6 °F 49% 30.22 in 10.0 mi NNE 4.6 mph - N/A   Clear
9:35 PM 66.2 °F 42.8 °F 43% 30.22 in 10.0 mi NNE 5.8 mph - N/A   Clear
9:55 PM 66.2 °F 42.8 °F 43% 30.23 in 10.0 mi NNE 4.6 mph - N/A   Clear
10:15 PM 66.2 °F 42.8 °F 43% 30.23 in 10.0 mi NE 5.8 mph - N/A   Clear
10:35 PM 66.2 °F 44.6 °F 46% 30.23 in 10.0 mi NE 5.8 mph - N/A   Clear
10:55 PM 66.2 °F 46.4 °F 49% 30.23 in 10.0 mi East 4.6 mph - N/A   Clear
11:15 PM 64.4 °F 46.4 °F 52% 30.22 in 10.0 mi NE 6.9 mph - N/A   Clear
11:35 PM 64.4 °F 46.4 °F 52% 30.22 in 10.0 mi ESE 4.6 mph - N/A   Clear
11:55 PM 64.4 °F 46.4 °F 52% 30.21 in 10.0 mi ESE 4.6 mph - N/A   Clear